Weather History for Shannon, Ireland

Change the Weather History Date:

Tuesday, September 17, 2013

  Actual Average Record
Temperature  
Mean Temperature 56 °F -  
Max Temperature 61 °F 60 °F 71 °F (1996)
Min Temperature 51 °F 48 °F 39 °F (2005)
Degree Days  
Heating Degree Days 9    
Growing Degree Days 6 (Base 50)    
Moisture  
Dew Point 53 °F    
Average Humidity 90    
Maximum Humidity 100    
Minimum Humidity 64    
Precipitation  
Precipitation 0.28 in 0.12 in - ()
Sea Level Pressure  
Sea Level Pressure 29.55 in    
Wind  
Wind Speed 15 mph ()    
Max Wind Speed 34 mph    
Max Gust Speed 46 mph    
Visibility 5.0 miles    
Events Rain    
Averages and records for this station are not official NWS values.
T = Trace of Precipitation, MM = Missing Value Source: Averaged Metar Reports

Daily Weather History Graph

Daily Weather History Graph

Search for Another Location

Airport:

Trip Planner

Search our weather history database for the weather conditions in past years. The results will help you decide how hot, cold, wet, or windy it might be!

Date:

Astronomy

Sep. 17, 2013 Rise Set
Actual Time 7:13 AM IST 7:45 PM IST
Civil Twilight 6:38 AM IST 8:20 PM IST
Nautical Twilight 5:57 AM IST 9:01 PM IST
Astronomical Twilight 5:13 AM IST 9:44 PM IST
Moon 6:32 PM IST 4:39 AM IST
Length of Visible Light 13h 41m
Length of Day
12h 32m
Waxing Gibbous, 95% of the Moon is Illuminated
Sep 17
Waxing Gibbous
Sep 19
Full
Sep 27
Last Quarter
Oct 5
New
Oct 12
First Quarter

Hourly Weather History & Observations

Time (IST) Temp. Dew Point Humidity Pressure Visibility Wind Dir Wind Speed Gust Speed Precip Events Conditions
12:00 AM 51.8 °F 46.4 °F 82% 29.74 in 6.2 mi West 12.7 mph - N/A   Mostly Cloudy
12:30 AM 53.6 °F 44.6 °F 72% 29.71 in 6.2 mi West 11.5 mph - N/A   Mostly Cloudy
1:00 AM 53 °F 44 °F 64% 29.73 in 12 mi West 11.2 mph - -   Partly Cloudy
1:00 AM 53.6 °F 44.6 °F 72% 29.71 in 6.2 mi West 11.5 mph - N/A   Mostly Cloudy
1:30 AM 53.6 °F 44.6 °F 72% 29.71 in 6.2 mi West 11.5 mph - N/A   Mostly Cloudy
2:00 AM 53.6 °F 46.4 °F 77% 29.71 in 6.2 mi West 10.4 mph - N/A   Mostly Cloudy
2:30 AM 53.6 °F 48.2 °F 82% 29.71 in 6.2 mi WSW 12.7 mph - N/A   Mostly Cloudy
3:00 AM 51.8 °F 48.2 °F 88% 29.68 in 6.2 mi WSW 11.5 mph - N/A Rain Light Rain Showers
3:30 AM 51.8 °F 48.2 °F 88% 29.68 in 5.6 mi West 9.2 mph - N/A   Light Drizzle
4:00 AM 51.8 °F 50.0 °F 94% 29.65 in 5.0 mi WSW 10.4 mph - N/A   Light Drizzle
4:30 AM 51.8 °F 50.0 °F 94% 29.65 in 5.0 mi West 11.5 mph - N/A   Light Drizzle
5:00 AM 51.8 °F 50.0 °F 94% 29.65 in 5.0 mi West 11.5 mph - N/A   Light Drizzle
5:30 AM 51.8 °F 50.0 °F 94% 29.62 in 5.0 mi West 6.9 mph - N/A   Light Drizzle
6:00 AM 51.8 °F 51.8 °F 100% 29.62 in 4.3 mi WSW 6.9 mph - N/A   Light Drizzle
6:30 AM 51.8 °F 51.8 °F 100% 29.59 in 6.2 mi WSW 8.1 mph - N/A   Mostly Cloudy
7:00 AM 53 °F 52 °F 96% 29.60 in 9 mi WSW 13.4 mph - - Rain Light Drizzle
7:00 AM 53.6 °F 51.8 °F 94% 29.59 in 6.2 mi WSW 12.7 mph - N/A   Light Drizzle
7:30 AM 53.6 °F 51.8 °F 94% 29.56 in 5.0 mi WSW 10.4 mph - N/A   Light Drizzle
8:00 AM 53.6 °F 53.6 °F 100% 29.53 in 1.9 mi SW 9.2 mph - N/A   Light Drizzle
8:30 AM 53.6 °F 53.6 °F 100% 29.53 in 4.3 mi South 10.4 mph - N/A   Light Drizzle
9:00 AM 55.4 °F 55.4 °F 100% 29.47 in 2.5 mi SSW 12.7 mph - N/A   Light Drizzle
9:30 AM 57.2 °F 57.2 °F 100% 29.44 in 1.2 mi SW 19.6 mph - N/A Rain Light Rain
10:00 AM 59.0 °F 59.0 °F 100% 29.47 in 2.5 mi WSW 21.9 mph - N/A Rain Light Rain
10:30 AM 60.8 °F 59.0 °F 94% 29.47 in 1.9 mi WSW 27.6 mph 39.1 mph N/A Rain Light Rain
11:00 AM 60.8 °F 59.0 °F 94% 29.47 in 2.8 mi West 25.3 mph 38.0 mph N/A Rain Light Rain
11:30 AM 60.8 °F 59.0 °F 94% 29.47 in 1.9 mi West 29.9 mph 42.6 mph N/A   Light Drizzle
12:00 PM 60.8 °F 59.0 °F 94% 29.47 in 1.9 mi West 28.8 mph - N/A   Light Drizzle
12:30 PM 60.8 °F 59.0 °F 94% 29.47 in 2.5 mi West 27.6 mph - N/A   Light Drizzle
1:00 PM 61 °F 58 °F 88% 29.48 in 5 mi West 33.6 mph - - Rain Light Drizzle
1:00 PM 60.8 °F 59.0 °F 94% 29.47 in 5.0 mi West 33.4 mph 46.0 mph N/A   Light Drizzle
1:30 PM 60.8 °F 59.0 °F 94% 29.47 in 6.2 mi West 28.8 mph 40.3 mph N/A   Mostly Cloudy
2:00 PM 60.8 °F 57.2 °F 88% 29.47 in 6.2 mi West 26.5 mph - N/A   Mostly Cloudy
2:30 PM 62.6 °F 57.2 °F 82% 29.47 in 6.2 mi West 26.5 mph - N/A   Mostly Cloudy
3:00 PM 60.8 °F 57.2 °F 88% 29.47 in 6.2 mi West 31.1 mph 44.9 mph N/A   Mostly Cloudy
3:30 PM 59.0 °F 55.4 °F 88% 29.47 in 3.7 mi West 26.5 mph - N/A Rain Light Rain
4:00 PM 57.2 °F 55.4 °F 94% 29.47 in 5.0 mi West 27.6 mph - N/A   Light Drizzle
4:30 PM 57.2 °F 55.4 °F 94% 29.47 in 6.2 mi West 24.2 mph - N/A   Mostly Cloudy
5:00 PM 57.2 °F 53.6 °F 88% 29.47 in 5.0 mi West 24.2 mph - N/A   Light Drizzle
5:30 PM 59.0 °F 53.6 °F 82% 29.47 in 6.2 mi West 25.3 mph - N/A   Mostly Cloudy
6:00 PM 57.2 °F 53.6 °F 88% 29.47 in 1.9 mi West 24.2 mph 35.7 mph N/A Rain Light Rain
6:30 PM 57.2 °F 55.4 °F 94% 29.50 in 1.9 mi WNW 16.1 mph - N/A Rain Light Rain
7:00 PM 56 °F 53 °F 88% 29.50 in 4 mi West 22.4 mph - - Rain Light Drizzle
7:00 PM 55.4 °F 53.6 °F 94% 29.50 in 4.3 mi West 23.0 mph - N/A   Light Drizzle
7:30 PM 55.4 °F 53.6 °F 94% 29.50 in 4.3 mi West 19.6 mph - N/A   Mostly Cloudy
8:00 PM 55.4 °F 53.6 °F 94% 29.50 in 6.2 mi West 17.3 mph - N/A   Mostly Cloudy
8:30 PM 57.2 °F 53.6 °F 88% 29.50 in 6.2 mi West 18.4 mph - N/A   Light Drizzle
9:00 PM 55.4 °F 53.6 °F 94% 29.50 in 6.2 mi West 18.4 mph - N/A   Mostly Cloudy
9:30 PM 55.4 °F 53.6 °F 94% 29.50 in 6.2 mi West 16.1 mph - N/A   Mostly Cloudy
10:00 PM 55.4 °F 51.8 °F 88% 29.53 in 6.2 mi West 18.4 mph - N/A   Mostly Cloudy
10:30 PM 55.4 °F 51.8 °F 88% 29.53 in 6.2 mi West 16.1 mph - N/A   Mostly Cloudy
11:00 PM 55.4 °F 53.6 °F 94% 29.53 in 6.2 mi West 17.3 mph - N/A   Mostly Cloudy
11:30 PM 55.4 °F 51.8 °F 88% 29.53 in 5.0 mi West 16.1 mph - N/A Rain Light Rain